Location: Podia
(1.5569°N, 32.3469°E)
Time: 00:58:20
(UTC+00:00)

STARLINK-1172 - Pass Details

Date: 01 June 2020
Orbit: 549 x 550 km, 53.0° (Epoch: 13 July)

Event Time Altitude Azimuth Distance (km) Brightness Sun altitude
Rises 17:22:41 0° 323° (NW) 2,712 8.2 -21.0°
Reaches altitude 10° 17:24:55 10° 322° (NW) 1,820 7.1 -21.6°
Maximum altitude 17:29:03 77° 236° (SW) 568 3.6 -22.5°
Enters shadow 17:29:23 70° 187° (S) 586 3.6 -22.6°
